Home > Weather > Krasnodar > Past weeks

Flag for Russia Weather for the Past 2 Weeks in Krasnodar, Russia

Now
48 °F

Clear.


Feels Like: 45 °F
Forecast: 49 / 62 °F
Wind: 8 mph from South

Location: Krasnodar Airport

Current Time: Feb 14, 2016 at 9:12:08 PM

Latest Report: Feb 14, 2016 at 8:30 PM


Visibility: 10 mi

Pressure: 29.95 "Hg

Humidity: 82%

Dew point: 43 °F

Location of KrasnodarLocation

Historic Weather in Krasnodar — Graph

°F

Krasnodar Temperature Yesterday

Maximum temperature yesterday: 55 °F (at 2:00 PM)
Minimum temperature yesterday: 37 °F (at 1:30 AM)
Average temperature yesterday: 47 °F

High & Low Weather Summary for the Past Weeks

 TemperatureHumidityPressure
High64 °F (Feb 14, 12:30 PM)100% (Jan 30, 8:30 PM)30.45 "Hg (Jan 30, 8:30 PM)
Low21 °F (Feb 8, 5:00 AM)36% (Feb 4, 1:00 PM)29.83 "Hg (Feb 1, 3:00 PM)
Average41 °F81%30.10 "Hg
* Reported Jan 30 8:00 PM — Feb 14 8:00 PM, Krasnodar, Weather by CustomWeather, © 2016

Note: Actual official high and low records may vary slightly from our data, if they occured in-between our weather recording intervals... More about our weather records

Advertising

Krasnodar Weather History for the Previous 24 Hours

 ConditionsComfort  
Time TempWeatherWind HumidityBarometerVisibility
8:00 PM
Sun, Feb 14
48 °FClear.8 mph82%29.95 "Hg10 mi
7:30 PM50 °FPassing clouds.10 mph82%29.95 "HgN/A
7:00 PM52 °FPassing clouds.15 mph77%29.95 "HgN/A
6:30 PM54 °FBroken clouds.15 mph72%29.95 "HgN/A
6:00 PM55 °FBroken clouds.15 mph63%29.92 "HgN/A
5:30 PM57 °FPartly sunny.10 mph63%29.92 "HgN/A
5:00 PM59 °FPartly sunny.15 mph59%29.89 "HgN/A
4:30 PM59 °FPartly sunny.13 mph51%29.89 "HgN/A
4:00 PM57 °FSprinkles. Broken clouds.17 mph59%29.89 "HgN/A
3:30 PM59 °FSprinkles. Broken clouds.20 mph55%29.86 "HgN/A
3:00 PM61 °FRefreshingly cool.20 mph52%29.86 "HgN/A
2:30 PM63 °FSunny.29 mph49%29.86 "Hg10 mi
2:00 PM61 °FSunny.20 mph52%29.86 "Hg10 mi
1:30 PM64 °FSunny.17 mph49%29.83 "Hg10 mi
1:00 PM63 °FSunny.13 mph52%29.86 "Hg10 mi
12:30 PM64 °FSunny.15 mph49%29.83 "Hg10 mi
12:00 PM59 °FSunny.15 mph59%29.86 "Hg10 mi
11:30 AM59 °FSunny.17 mph59%29.86 "Hg10 mi
10:30 AM55 °FSunny.13 mph72%29.83 "Hg10 mi
10:00 AM55 °FSunny.15 mph67%29.83 "Hg10 mi
9:30 AM54 °FSunny.10 mph72%29.83 "Hg10 mi
9:00 AM52 °FSunny.6 mph77%29.86 "Hg10 mi
8:30 AM50 °FSunny.8 mph76%29.86 "Hg10 mi
8:00 AM55 °FClear.15 mph67%29.86 "Hg10 mi
7:30 AM52 °FClear.6 mph72%29.86 "Hg10 mi
7:00 AM54 °FCool.10 mph72%29.83 "HgN/A
6:30 AM54 °FCool.13 mph67%29.86 "HgN/A
6:00 AM52 °FCool.10 mph72%29.83 "HgN/A
5:30 AM50 °FCool.8 mph71%29.83 "HgN/A
5:00 AM46 °FClear.6 mph87%29.83 "Hg10 mi
4:30 AM48 °FClear.8 mph76%29.83 "Hg10 mi
4:00 AM46 °FClear.6 mph82%29.83 "Hg10 mi
3:30 AM46 °FClear.6 mph87%29.86 "Hg10 mi
3:00 AM46 °FPassing clouds.3 mph87%29.83 "HgN/A
2:30 AM46 °FPassing clouds.3 mph87%29.86 "HgN/A
2:00 AM48 °FPassing clouds.3 mph82%29.86 "HgN/A
1:30 AM46 °FPassing clouds.3 mph87%29.86 "HgN/A
12:30 AM48 °FClear.1 mph82%29.86 "Hg10 mi
12:00 AM48 °FClear.1 mph82%29.86 "Hg10 mi
11:30 PM
Sat, Feb 13
48 °FClear.3 mph82%29.86 "Hg10 mi
11:00 PM46 °FClear.6 mph87%29.86 "Hg10 mi
10:30 PM46 °FClear.3 mph87%29.86 "Hg10 mi
10:00 PM50 °FClear.6 mph76%29.86 "Hg10 mi
9:30 PM48 °FClear.3 mph87%29.86 "Hg10 mi
9:00 PM50 °FPassing clouds.3 mph82%29.86 "HgN/A
Weather by CustomWeather, © 2016

See weather overviewHow to use our weather pages